Satellite: NO-44
Catalog number: 26931
Epoch time:      11341.81251602
Element set:     914
Inclination:      067.0521 deg
RA of node:       256.1239 deg
Eccentricity:    0.0004923
Arg of perigee:   274.6583 deg
Mean anomaly:     085.3934 deg
Mean motion:   14.29731997 rev/day
Decay rate:        5.0e-07 rev/day^2
Epoch rev:           53174
Checksum:              300

Satellite: SO-50
Catalog number: 27607
Epoch time:      11342.54861928
Element set:     633
Inclination:      064.5553 deg
RA of node:       157.7363 deg
Eccentricity:    0.0083784
Arg of perigee:   285.7200 deg
Mean anomaly:     073.4679 deg
Mean motion:   14.72072553 rev/day
Decay rate:      1.402e-05 rev/day^2
Epoch rev:           48175
Checksum:              320

Satellite: CO-55
Catalog number: 27844
Epoch time:      11341.62145447
Element set:     259
Inclination:      098.7055 deg
RA of node:       347.8077 deg
Eccentricity:    0.0010493
Arg of perigee:   059.7896 deg
Mean anomaly:     300.4345 deg
Mean motion:   14.20918099 rev/day
Decay rate:       5.15e-06 rev/day^2
Epoch rev:           43754
Checksum:              331

Satellite: CO-57
Catalog number: 27848
Epoch time:      11342.57832938
Element set:     207
Inclination:      098.7127 deg
RA of node:       348.0034 deg
Eccentricity:    0.0010631
Arg of perigee:   062.0841 deg
Mean anomaly:     298.1400 deg
Mean motion:   14.20684659 rev/day
Decay rate:       4.24e-06 rev/day^2
Epoch rev:           43762
Checksum:              305

Satellite: AO-51
Catalog number: 28375
Epoch time:      11341.51958188
Element set:    0139
Inclination:      098.1201 deg
RA of node:       311.0635 deg
Eccentricity:    0.0083040
Arg of perigee:   265.2760 deg
Mean anomaly:     093.8877 deg
Mean motion:   14.40863416 rev/day
Decay rate:       5.97e-06 rev/day^2
Epoch rev:           39102
Checksum:              307

Satellite: CP3
Catalog number: 31129
Epoch time:      11342.56297442
Element set:      38
Inclination:      097.8894 deg
RA of node:       356.6209 deg
Eccentricity:    0.0102104
Arg of perigee:   359.8180 deg
Mean anomaly:     000.2922 deg
Mean motion:   14.52765500 rev/day
Decay rate:      1.739e-05 rev/day^2
Epoch rev:           24615
Checksum:              294

Satellite: CO-65
Catalog number: 32785
Epoch time:      11342.72641670
Element set:     170
Inclination:      097.8297 deg
RA of node:       043.1049 deg
Eccentricity:    0.0014289
Arg of perigee:   331.9526 deg
Mean anomaly:     028.0923 deg
Mean motion:   14.82490610 rev/day
Decay rate:      2.263e-05 rev/day^2
Epoch rev:           19539
Checksum:              312

Satellite: PRISM
Catalog number: 33493
Epoch time:      11342.75472860
Element set:     218
Inclination:      098.1456 deg
RA of node:       114.2396 deg
Eccentricity:    0.0019310
Arg of perigee:   195.0235 deg
Mean anomaly:     165.0409 deg
Mean motion:   14.82771015 rev/day
Decay rate:      6.547e-05 rev/day^2
Epoch rev:           15537
Checksum:              293

Satellite: SOHLA-1
Catalog number: 33496
Epoch time:      11341.93416540
Element set:    0597
Inclination:      098.0932 deg
RA of node:       090.1532 deg
Eccentricity:    0.0005760
Arg of perigee:   296.2739 deg
Mean anomaly:     063.7873 deg
Mean motion:   14.69796165 rev/day
Decay rate:       9.61e-06 rev/day^2
Epoch rev:           15400
Checksum:              320

Satellite: TISAT-1
Catalog number: 36799
Epoch time:      11341.79873443
Element set:    0485
Inclination:      098.0853 deg
RA of node:       051.6455 deg
Eccentricity:    0.0016108
Arg of perigee:   076.9360 deg
Mean anomaly:     283.3636 deg
Mean motion:   14.81244155 rev/day
Decay rate:      3.921e-05 rev/day^2
Epoch rev:           07600
Checksum:              316

Satellite: STUDSAT
Catalog number: 36801
Epoch time:      11341.89317203
Element set:     296
Inclination:      098.0911 deg
RA of node:       051.7978 deg
Eccentricity:    0.0013952
Arg of perigee:   064.0535 deg
Mean anomaly:     296.2115 deg
Mean motion:   14.82399866 rev/day
Decay rate:     1.0178e-04 rev/day^2
Epoch rev:            7601
Checksum:              306

Satellite: OOREOS
Catalog number: 37224
Epoch time:      11330.25217324
Element set:    0033
Inclination:      071.9741 deg
RA of node:       041.3371 deg
Eccentricity:    0.0020052
Arg of perigee:   337.4654 deg
Mean anomaly:     022.5620 deg
Mean motion:   14.77385090 rev/day
Decay rate:      2.151e-05 rev/day^2
Epoch rev:           00594
Checksum:              243

Satellite: FO-69
Catalog number: 37227
Epoch time:      11341.48162359
Element set:    0045
Inclination:      071.9723 deg
RA of node:       017.1178 deg
Eccentricity:    0.0018365
Arg of perigee:   314.3780 deg
Mean anomaly:     045.5847 deg
Mean motion:   14.76829035 rev/day
Decay rate:      1.251e-05 rev/day^2
Epoch rev:           00764
Checksum:              309

Satellite: NANOSALD
Catalog number: 37361
Epoch time:      11242.25215765
Element set:    0351
Inclination:      071.9735 deg
RA of node:       221.4469 deg
Eccentricity:    0.0025730
Arg of perigee:   245.3422 deg
Mean anomaly:     114.7284 deg
Mean motion:   15.22200108 rev/day
Decay rate:    1.80112e-03 rev/day^2
Epoch rev:           03331
Checksum:              248

